This is the latest recevied weather packets stored in our database for station/object AB1AU. If no packets are shown the sender has not sent any weather packets the latest 10 day(s).
| Time | Temp. | Humidity | Pressure | Rain* | Wind** | Luminosity | Snow |
|---|---|---|---|---|---|---|---|
| 1777761654 | 6.11° C | 90% | 1012.6 hPa | 1.78 mm | - | 3 W/m² | - |
| 1777761351 | 6.11° C | 89% | 1012.6 hPa | 0 mm | - | 3 W/m² | - |
| 1777761050 | 6.67° C | 89% | 1012.6 hPa | 0 mm | - | 3 W/m² | - |
| 1777760746 | 6.67° C | 89% | 1012.7 hPa | 0 mm | - | 4 W/m² | - |
| 1777760443 | 6.67° C | 88% | 1012.6 hPa | 1.27 mm | - | 5 W/m² | - |
| 1777760139 | 6.67° C | 88% | 1012.6 hPa | 1.27 mm | - | 7 W/m² | - |
| 1777759836 | 6.67° C | 88% | 1012.6 hPa | 0 mm | - | 12 W/m² | - |
| 1777759532 | 6.67° C | 88% | 1012.7 hPa | 0 mm | - | 7 W/m² | - |
| 1777759229 | 6.67° C | 88% | 1012.7 hPa | 0 mm | - | 8 W/m² | - |
| 1777758926 | 6.67° C | 88% | 1012.7 hPa | 0 mm | - | 9 W/m² | - |
| 1777758623 | 6.67° C | 87% | 1012.8 hPa | 0 mm | - | 12 W/m² | - |
| 1777758320 | 6.67° C | 87% | 1012.9 hPa | 0 mm | - | 9 W/m² | - |
| 1777758017 | 6.67° C | 87% | 1012.8 hPa | 0 mm | - | 9 W/m² | - |
| 1777757714 | 6.67° C | 88% | 1012.8 hPa | 0 mm | - | 24 W/m² | - |
| 1777757412 | 6.67° C | 87% | 1012.9 hPa | 0 mm | - | 32 W/m² | - |
| 1777757110 | 6.67° C | 87% | 1012.8 hPa | 0 mm | - | 30 W/m² | - |
| 1777756807 | 6.67° C | 88% | 1012.9 hPa | 0 mm | - | 26 W/m² | - |
| 1777756503 | 6.67° C | 88% | 1012.8 hPa | 0 mm | - | 34 W/m² | - |
| 1777756201 | 6.67° C | 88% | 1013 hPa | 0 mm | - | 37 W/m² | - |
| 1777755897 | 6.67° C | 88% | 1012.8 hPa | 0 mm | - | 43 W/m² | - |
| 1777755594 | 6.67° C | 88% | 1012.9 hPa | 0 mm | - | 41 W/m² | - |
| 1777755290 | 6.67° C | 88% | 1013 hPa | 0 mm | - | 40 W/m² | - |
| 1777754988 | 6.67° C | 88% | 1012.9 hPa | 0 mm | - | 66 W/m² | - |
| 1777754684 | 6.67° C | 88% | 1012.8 hPa | 0 mm | - | 75 W/m² | - |
| 1777754383 | 6.67° C | 88% | 1012.9 hPa | 0 mm | - | 68 W/m² | - |
* Rain latest hour (hover to see other rain measurements)
** Current wind speed in m/s (hover to see current wind gust speed)